TimePDT,TemperatureF,Dew PointF,Humidity,Sea Level PressureIn,VisibilityMPH,Wind Direction,Wind SpeedMPH,Gust SpeedMPH,PrecipitationIn,Events,Conditions,WindDirDegrees,DateUTC
12:15 AM,87.8,50.0,27,29.85,10.0,West,23.0,26.5,N/A,,Clear,280,2013-07-04 07:15:00
12:35 AM,87.8,50.0,27,29.85,10.0,West,19.6,27.6,N/A,,Clear,280,2013-07-04 07:35:00
12:55 AM,87.8,50.0,27,29.85,10.0,WNW,21.9,29.9,N/A,,Clear,290,2013-07-04 07:55:00
1:15 AM,86.0,50.0,29,29.86,10.0,West,21.9,27.6,N/A,,Clear,280,2013-07-04 08:15:00
1:35 AM,86.0,50.0,29,29.85,10.0,West,21.9,-,N/A,,Clear,280,2013-07-04 08:35:00
1:55 AM,86.0,48.2,27,29.85,10.0,West,20.7,-,N/A,,Clear,280,2013-07-04 08:55:00
2:15 AM,86.0,50.0,29,29.84,10.0,West,21.9,26.5,N/A,,Clear,280,2013-07-04 09:15:00
2:35 AM,86.0,48.2,27,29.84,10.0,West,20.7,24.2,N/A,,Clear,280,2013-07-04 09:35:00
2:55 AM,86.0,46.4,25,29.84,10.0,West,19.6,27.6,N/A,,Clear,280,2013-07-04 09:55:00
3:15 AM,86.0,46.4,25,29.83,10.0,West,19.6,-,N/A,,Clear,280,2013-07-04 10:15:00
3:35 AM,86.0,46.4,25,29.83,10.0,West,17.3,-,N/A,,Clear,280,2013-07-04 10:35:00
3:55 AM,86.0,46.4,25,29.82,10.0,WNW,19.6,25.3,N/A,,Clear,290,2013-07-04 10:55:00
4:15 AM,86.0,46.4,25,29.83,10.0,WNW,17.3,-,N/A,,Clear,290,2013-07-04 11:15:00
4:35 AM,86.0,46.4,25,29.82,10.0,WNW,17.3,24.2,N/A,,Clear,290,2013-07-04 11:35:00
4:55 AM,86.0,44.6,23,29.82,10.0,WNW,15.0,-,N/A,,Clear,290,2013-07-04 11:55:00
5:15 AM,86.0,46.4,25,29.82,10.0,WNW,15.0,-,N/A,,Clear,290,2013-07-04 12:15:00
5:35 AM,86.0,46.4,25,29.82,10.0,West,16.1,-,N/A,,Clear,280,2013-07-04 12:35:00
5:55 AM,86.0,46.4,25,29.83,10.0,WNW,16.1,-,N/A,,Clear,290,2013-07-04 12:55:00
6:15 AM,84.2,48.2,29,29.83,10.0,WNW,15.0,-,N/A,,Clear,300,2013-07-04 13:15:00
6:35 AM,86.0,48.2,27,29.84,10.0,WNW,13.8,-,N/A,,Clear,300,2013-07-04 13:35:00
6:55 AM,86.0,48.2,27,29.85,10.0,NW,11.5,16.1,N/A,,Clear,310,2013-07-04 13:55:00
7:15 AM,87.8,48.2,25,29.85,10.0,WNW,10.4,-,N/A,,Clear,300,2013-07-04 14:15:00
7:35 AM,89.6,48.2,24,29.86,10.0,NE,4.6,-,N/A,,Clear,40,2013-07-04 14:35:00
7:55 AM,89.6,48.2,24,29.86,10.0,NNW,8.1,-,N/A,,Clear,330,2013-07-04 14:55:00
8:15 AM,91.4,48.2,23,29.86,10.0,NW,6.9,-,N/A,,Clear,320,2013-07-04 15:15:00
8:35 AM,93.2,50.0,23,29.86,10.0,North,6.9,-,N/A,,Clear,360,2013-07-04 15:35:00
8:55 AM,91.4,48.2,23,29.86,10.0,East,4.6,-,N/A,,Clear,100,2013-07-04 15:55:00
9:15 AM,93.2,48.2,21,29.86,10.0,Calm,Calm,-,N/A,,Clear,0,2013-07-04 16:15:00
9:35 AM,95.0,48.2,20,29.85,10.0,Calm,Calm,-,N/A,,Clear,0,2013-07-04 16:35:00
9:55 AM,98.6,48.2,18,29.85,10.0,Calm,Calm,-,N/A,,Clear,0,2013-07-04 16:55:00
10:15 AM,98.6,48.2,18,29.85,10.0,SSE,3.5,-,N/A,,Clear,160,2013-07-04 17:15:00
10:35 AM,98.6,46.4,17,29.85,10.0,SSW,3.5,-,N/A,,Clear,200,2013-07-04 17:35:00
10:55 AM,100.4,46.4,16,29.84,10.0,Calm,Calm,-,N/A,,Clear,0,2013-07-04 17:55:00
11:15 AM,100.4,46.4,16,29.84,10.0,WSW,4.6,-,N/A,,Clear,240,2013-07-04 18:15:00
11:35 AM,100.4,46.4,16,29.84,10.0,SSE,4.6,-,N/A,,Clear,160,2013-07-04 18:35:00
11:55 AM,100.4,46.4,16,29.84,10.0,ENE,4.6,-,N/A,,Clear,70,2013-07-04 18:55:00
12:15 PM,102.2,46.4,15,29.84,10.0,Calm,Calm,-,N/A,,Clear,0,2013-07-04 19:15:00
12:35 PM,104.0,46.4,14,29.83,10.0,SSW,4.6,-,N/A,,Clear,200,2013-07-04 19:35:00
12:55 PM,102.2,46.4,15,29.83,10.0,SSE,5.8,-,N/A,,Clear,150,2013-07-04 19:55:00
1:15 PM,104.0,46.4,14,29.82,10.0,SSW,9.2,-,N/A,,Clear,210,2013-07-04 20:15:00
1:35 PM,104.0,46.4,14,29.81,10.0,SSE,6.9,16.1,N/A,,Clear,160,2013-07-04 20:35:00
1:55 PM,105.8,46.4,14,29.81,10.0,SSW,17.3,20.7,N/A,,Clear,200,2013-07-04 20:55:00
2:15 PM,105.8,46.4,14,29.80,10.0,SSW,18.4,21.9,N/A,,Clear,210,2013-07-04 21:15:00
2:35 PM,104.0,46.4,14,29.80,10.0,South,13.8,19.6,N/A,,Clear,190,2013-07-04 21:35:00
2:55 PM,104.0,46.4,14,29.79,10.0,SSW,19.6,26.5,N/A,,Clear,210,2013-07-04 21:55:00
3:15 PM,105.8,46.4,14,29.78,10.0,WSW,15.0,27.6,N/A,,Clear,250,2013-07-04 22:15:00
3:35 PM,105.8,50.0,15,29.77,10.0,West,17.3,24.2,N/A,,Clear,270,2013-07-04 22:35:00
3:55 PM,104.0,50.0,16,29.77,10.0,West,20.7,26.5,N/A,,Clear,280,2013-07-04 22:55:00
4:15 PM,104.0,50.0,16,29.77,10.0,WNW,18.4,26.5,N/A,,Clear,290,2013-07-04 23:15:00
4:35 PM,102.2,51.8,18,29.77,10.0,West,17.3,28.8,N/A,,Clear,280,2013-07-04 23:35:00
4:55 PM,102.2,51.8,18,29.77,10.0,WNW,21.9,28.8,N/A,,Clear,290,2013-07-04 23:55:00
5:15 PM,100.4,51.8,20,29.77,10.0,West,23.0,29.9,N/A,,Clear,280,2013-07-05 00:15:00
5:35 PM,100.4,53.6,21,29.77,10.0,West,21.9,28.8,N/A,,Clear,280,2013-07-05 00:35:00
5:55 PM,100.4,53.6,21,29.77,10.0,West,20.7,28.8,N/A,,Clear,280,2013-07-05 00:55:00
6:15 PM,98.6,53.6,22,29.77,10.0,West,20.7,31.1,N/A,,Clear,280,2013-07-05 01:15:00
6:35 PM,96.8,53.6,23,29.76,10.0,West,27.6,32.2,N/A,,Clear,280,2013-07-05 01:35:00
6:55 PM,95.0,53.6,25,29.76,10.0,WNW,28.8,35.7,N/A,,Clear,290,2013-07-05 01:55:00
7:15 PM,95.0,50.0,22,29.77,10.0,West,24.2,31.1,N/A,,Clear,280,2013-07-05 02:15:00
7:35 PM,95.0,50.0,22,29.78,10.0,West,18.4,31.1,N/A,,Clear,270,2013-07-05 02:35:00
7:55 PM,93.2,50.0,23,29.78,10.0,West,20.7,27.6,N/A,,Clear,270,2013-07-05 02:55:00
8:15 PM,93.2,50.0,23,29.78,10.0,West,19.6,31.1,N/A,,Clear,280,2013-07-05 03:15:00
8:35 PM,91.4,51.8,26,29.78,10.0,WNW,25.3,33.4,N/A,,Clear,290,2013-07-05 03:35:00
8:55 PM,91.4,51.8,26,29.78,10.0,WNW,26.5,34.5,N/A,,Clear,290,2013-07-05 03:55:00
9:15 PM,91.4,53.6,28,29.79,10.0,WNW,24.2,35.7,N/A,,Clear,290,2013-07-05 04:15:00
9:35 PM,89.6,53.6,29,29.79,10.0,West,25.3,35.7,N/A,,Clear,280,2013-07-05 04:35:00
9:55 PM,89.6,53.6,29,29.80,10.0,West,25.3,33.4,N/A,,Clear,280,2013-07-05 04:55:00
10:15 PM,89.6,51.8,27,29.80,10.0,West,25.3,36.8,N/A,,Clear,280,2013-07-05 05:15:00
10:35 PM,89.6,51.8,27,29.80,10.0,WNW,27.6,35.7,N/A,,Clear,290,2013-07-05 05:35:00
10:55 PM,89.6,51.8,27,29.81,10.0,WNW,19.6,29.9,N/A,,Clear,300,2013-07-05 05:55:00
11:15 PM,89.6,51.8,27,29.81,10.0,WNW,19.6,28.8,N/A,,Clear,290,2013-07-05 06:15:00
11:35 PM,89.6,51.8,27,29.81,10.0,West,23.0,32.2,N/A,,Clear,280,2013-07-05 06:35:00
11:55 PM,87.8,51.8,29,29.81,10.0,West,23.0,32.2,N/A,,Clear,280,2013-07-05 06:55:00